Weather reports worldwide

Advertisment
Bastia, France (7790): temperature & dewpoint: 20.09.2020 13:00:00 - 26.09.2020 13:00:00 (CEST)Bastia, France (7790): temperature 5cm: 20.09.2020 13:00:00 - 26.09.2020 13:00:00 (CEST)Bastia, France (7790): temperature -20cm & temperature -100cm: 20.09.2020 13:00:00 - 26.09.2020 13:00:00 (CEST)Bastia, France (7790): wind speed & gusts: 20.09.2020 13:00:00 - 26.09.2020 13:00:00 (CEST)Bastia, France (7790): wind direction: 20.09.2020 13:00:00 - 26.09.2020 13:00:00 (CEST)Bastia, France (7790): reduced air pressure: 20.09.2020 13:00:00 - 26.09.2020 13:00:00 (CEST)Bastia, France (7790): visibility: 20.09.2020 13:00:00 - 26.09.2020 13:00:00 (CEST)Bastia, France (7790): sunshine duration: 20.09.2020 13:00:00 - 26.09.2020 13:00:00 (CEST)Bastia, France (7790): precipitation: 20.09.2020 13:00:00 - 26.09.2020 13:00:00 (CEST)
Date & Time tt [°C] td [°C] tt 5cm [°C] tt -20cm [°C] tt -100cm [°C] ff [km/h] ff [kn] fx [km/h] fx [kn] dd ppp [hPa] vv [km] sd [min] rr [mm]
26.09.2020 13:00:00 - - - - - - - - - - - - - -
26.09.2020 12:00:00 22,2 2,8 26,0 21,6 23,4 15 8 41 22 WSW 1000,4 54 60 0,0
26.09.2020 11:00:00 20,9 4,4 23,4 21,7 23,4 20 11 41 22 WSW 1000,2 57 60 0,0
26.09.2020 10:00:00 19,9 4,0 19,3 21,7 23,4 23 13 46 25 WSW 999,2 37 60 0,0
26.09.2020 09:00:00 17,3 5,6 15,6 21,9 23,5 19 10 38 20 WSW 999,4 58 17 0,0
26.09.2020 08:00:00 17,2 4,8 14,4 22,0 23,5 23 13 42 23 WSW 998,4 43 22 0,0
26.09.2020 07:00:00 16,1 5,4 11,4 22,1 23,5 18 10 44 24 WSW 998,1 60 0 0,0
26.09.2020 06:00:00 15,9 5,2 10,5 22,2 23,5 7 4 42 23 SW 998,2 48 0 0,0
26.09.2020 05:00:00 15,5 5,1 13,8 22,3 23,5 19 10 79 42 W 997,9 60 0 0,0
26.09.2020 04:00:00 15,1 6,1 13,4 22,4 23,5 26 14 72 39 E 996,2 59 0 0,0
26.09.2020 03:00:00 16,6 5,8 15,7 22,5 23,5 50 27 94 51 W 995,9 60 0 0,0
26.09.2020 02:00:00 17,0 6,5 14,1 22,6 23,5 57 31 105 57 WSW 995,6 49 0 0,0
26.09.2020 01:00:00 17,2 7,3 15,5 22,7 23,5 46 25 86 47 W 996,1 48 0 0,0
26.09.2020 00:00:00 16,6 7,0 11,2 22,9 23,5 44 24 76 41 WSW 997,8 46 0 0,4
25.09.2020 23:00:00 17,3 5,9 15,7 23,0 23,5 37 20 70 38 W 999,4 20 0 0,0
25.09.2020 22:00:00 17,5 6,7 11,7 23,0 23,5 42 23 103 55 W 998,9 55 0 0,2
25.09.2020 21:00:00 18,9 5,7 17,5 23,1 23,5 53 29 92 50 W 997,2 58 0 0,0
25.09.2020 20:00:00 18,7 5,2 16,9 23,2 23,5 50 27 100 54 W 996,3 58 0 0,0
25.09.2020 19:00:00 17,7 5,9 16,3 23,2 23,5 43 23 75 41 WSW 995,8 55 0 0,0
25.09.2020 18:00:00 16,8 8,0 16,2 23,2 23,5 32 17 66 36 WSW 997,8 42 0 0,0
25.09.2020 17:00:00 17,2 8,3 15,6 23,2 23,5 39 21 69 37 WSW 998,0 26 0 0,0
25.09.2020 16:00:00 18,8 8,2 19,2 23,3 23,5 39 21 76 41 SW 998,1 31 11 0,0
25.09.2020 15:00:00 21,2 7,8 25,0 23,3 23,5 41 22 78 42 WSW 998,6 59 60 0,0
25.09.2020 14:00:00 23,4 5,3 23,5 23,3 23,5 27 15 54 29 SW 999,4 60 42 0,0
25.09.2020 13:00:00 23,0 10,8 21,8 23,4 23,6 21 11 57 31 NNW 1000,0 41 18 0,0
25.09.2020 12:00:00 20,4 13,4 20,8 23,4 23,5 39 21 63 34 WNW 1000,6 12 5 0,0
25.09.2020 11:00:00 24,6 14,4 25,2 23,5 23,5 22 12 44 24 WNW 1000,3 27 56 0,0
25.09.2020 10:00:00 24,4 14,5 20,4 23,5 23,6 9 5 13 7 NNE 1000,4 20 60 0,0
25.09.2020 09:00:00 21,8 17,4 16,4 23,6 23,6 3 2 11 6 SSW 1000,9 49 60 0,0
25.09.2020 08:00:00 17,4 15,6 13,9 23,7 23,6 10 5 15 8 SSE 1000,9 42 27 0,0
25.09.2020 07:00:00 16,4 15,1 13,9 23,7 23,6 7 4 18 10 WNW 1001,2 8 0 0,0
25.09.2020 06:00:00 16,8 15,5 14,4 23,7 23,6 6 3 18 10 WNW 1001,8 43 0 0,0
25.09.2020 05:00:00 18,0 16,2 15,3 23,8 23,6 3 2 22 12 NE 1002,9 56 0 0,0
25.09.2020 04:00:00 18,1 16,4 15,8 23,8 23,6 12 7 19 10 S 1003,4 43 0 0,0
25.09.2020 03:00:00 18,4 17,1 17,1 23,8 23,6 8 4 13 7 S 1004,5 50 0 0,0
25.09.2020 02:00:00 19,3 17,4 17,5 23,8 23,6 2 1 20 11 WNW 1005,2 60 0 0,2
25.09.2020 01:00:00 20,5 17,7 18,9 23,8 23,6 10 5 40 21 SW 1006,0 51 0 0,0
25.09.2020 00:00:00 21,3 19,0 18,8 23,8 23,6 12 6 20 11 NNW 1006,5 16 0 0,2
24.09.2020 23:00:00 20,7 17,5 19,3 23,7 23,6 11 6 16 9 S 1007,0 42 0 0,0
24.09.2020 22:00:00 20,9 17,9 19,3 23,6 23,7 6 3 20 11 SW 1007,6 40 0 0,0
24.09.2020 21:00:00 22,4 19,0 20,2 23,6 23,6 7 4 17 9 SE 1008,5 46 0 0,0
24.09.2020 20:00:00 22,4 20,1 21,2 23,5 23,7 4 2 8 4 SW 1009,2 30 0 0,0
24.09.2020 19:00:00 23,7 19,8 23,1 23,3 23,6 6 3 11 6 NNW 1009,5 35 0 0,0
24.09.2020 18:00:00 24,6 19,4 25,0 23,3 23,7 6 3 11 6 NNE 1009,8 48 0 0,0
24.09.2020 17:00:00 25,7 18,9 27,7 23,2 23,7 6 3 18 10 NE 1010,1 38 33 0,0
24.09.2020 16:00:00 26,6 20,9 30,1 23,1 23,7 10 5 21 11 E 1010,8 42 41 0,0
24.09.2020 15:00:00 26,4 20,0 32,2 23,0 23,7 10 5 20 11 ENE 1010,9 48 50 0,0
24.09.2020 14:00:00 26,4 18,5 33,1 23,0 23,7 11 6 22 12 E 1011,5 20 58 0,0
24.09.2020 13:00:00 25,7 19,8 29,3 23,1 23,7 13 7 23 12 ESE 1011,8 37 30 0,0
24.09.2020 12:00:00 25,2 18,6 29,4 23,1 23,8 11 6 18 10 ESE 1012,1 40 23 0,0
24.09.2020 11:00:00 26,5 17,3 25,2 23,2 23,8 5 3 10 6 SE 1012,3 38 60 0,0
24.09.2020 10:00:00 23,4 16,4 19,2 23,2 23,8 6 3 14 8 S 1012,2 48 60 0,0
24.09.2020 09:00:00 20,2 15,8 15,4 23,3 23,7 7 4 15 8 SSW 1011,8 20 52 0,0
24.09.2020 08:00:00 17,0 13,7 14,0 23,3 23,7 10 6 16 9 S 1011,3 42 6 0,0
24.09.2020 07:00:00 16,2 13,7 13,5 23,4 23,8 12 6 16 8 SSW 1011,3 43 0 0,0
24.09.2020 06:00:00 16,0 14,0 13,7 23,5 23,8 8 5 12 6 SW 1011,4 44 0 0,0
24.09.2020 05:00:00 16,0 13,8 13,3 23,6 23,8 9 5 13 7 SSW 1011,4 43 0 0,0
24.09.2020 04:00:00 16,2 14,0 13,4 23,6 23,8 9 5 12 7 WSW 1011,6 43 0 0,0
24.09.2020 03:00:00 16,3 14,5 13,9 23,6 23,8 8 4 11 6 SW 1011,8 40 0 0,2
24.09.2020 02:00:00 16,9 15,1 14,3 23,6 23,8 6 3 12 6 WSW 1012,0 36 0 0,0
24.09.2020 01:00:00 17,3 15,6 14,6 23,7 23,8 6 3 10 6 SSW 1011,8 27 0 0,0
24.09.2020 00:00:00 17,7 15,7 15,1 23,7 23,8 8 4 11 6 SSW 1012,1 40 0 0,0
23.09.2020 23:00:00 18,1 16,3 15,6 23,7 23,9 8 5 11 6 SSW 1011,9 41 0 0,0
23.09.2020 22:00:00 18,4 17,1 15,5 23,6 23,8 6 3 11 6 SSW 1011,8 28 0 0,0
23.09.2020 21:00:00 18,9 17,6 16,2 23,6 23,9 5 3 10 5 SSW 1011,3 35 0 0,0
23.09.2020 20:00:00 19,8 18,5 17,5 23,5 23,8 7 4 9 5 SSW 1010,9 13 0 0,0
23.09.2020 19:00:00 22,7 18,9 21,8 23,4 23,9 4 2 7 4 ESE 1011,1 20 50 0,0
23.09.2020 18:00:00 22,6 19,0 22,9 23,4 23,9 3 2 6 3 S 1011,1 20 0 0,0
23.09.2020 17:00:00 22,9 18,4 22,7 23,3 23,9 3 2 13 7 E 1011,1 17 0 0,0
23.09.2020 16:00:00 22,3 17,7 21,2 23,2 23,9 11 6 25 13 ENE 1011,1 56 0 0,2
23.09.2020 15:00:00 24,1 18,7 29,9 23,2 23,9 13 7 24 13 E 1010,7 52 49 0,0
23.09.2020 14:00:00 25,3 18,7 31,2 23,2 23,9 11 6 22 12 ESE 1010,8 18 51 0,0
23.09.2020 13:00:00 25,2 17,7 25,6 23,2 23,9 9 5 16 9 E 1011,3 36 26 0,0
23.09.2020 12:00:00 23,2 18,1 24,9 23,2 23,9 6 3 19 11 SSE 1011,9 47 0 0,0
23.09.2020 11:00:00 23,9 17,9 23,4 23,3 23,9 12 7 21 11 SE 1012,0 31 48 0,0
23.09.2020 10:00:00 23,5 16,0 18,9 23,3 23,9 3 2 13 7 SSE 1012,0 49 49 0,0
23.09.2020 09:00:00 20,0 15,2 16,3 23,4 23,9 11 6 23 13 SW 1011,7 43 25 0,0
23.09.2020 08:00:00 18,2 14,7 15,2 23,5 24,0 10 5 20 11 SW 1011,2 27 17 0,0
23.09.2020 07:00:00 16,9 14,5 14,7 23,5 24,0 9 5 15 8 SW 1011,7 35 0 0,0
23.09.2020 06:00:00 16,4 14,6 14,2 23,6 24,0 9 5 17 9 SSW 1012,0 41 0 0,0
23.09.2020 05:00:00 16,7 14,9 14,3 23,6 24,0 9 5 14 7 SW 1012,1 31 0 0,0
23.09.2020 04:00:00 16,7 15,1 14,9 23,7 24,0 7 4 12 6 S 1011,9 43 0 0,0
23.09.2020 03:00:00 17,7 15,3 15,9 23,7 24,0 9 5 21 11 SSW 1012,1 38 0 0,0
23.09.2020 02:00:00 18,0 15,4 14,7 23,7 24,0 13 7 20 11 SW 1012,8 34 0 0,0
23.09.2020 01:00:00 17,5 15,7 15,0 23,8 24,0 6 3 22 12 SW 1013,1 47 0 0,0
23.09.2020 00:00:00 18,0 16,0 15,7 23,8 24,0 9 5 21 12 SSW 1013,0 52 0 0,0
22.09.2020 23:00:00 17,7 16,6 15,6 23,8 24,0 7 4 10 6 SW 1013,5 49 0 0,0
22.09.2020 22:00:00 17,8 16,8 16,5 23,8 24,0 6 4 9 5 SSW 1014,0 38 0 0,0
22.09.2020 21:00:00 18,7 17,4 17,4 23,8 24,0 5 3 13 7 SW 1013,6 45 0 0,0
22.09.2020 20:00:00 19,1 17,6 18,2 23,8 24,0 9 5 15 8 SSW 1013,2 50 0 0,0
22.09.2020 19:00:00 20,2 18,9 19,5 23,8 24,0 4 2 10 5 SSE 1013,0 37 0 0,0
22.09.2020 18:00:00 21,1 18,3 20,8 23,8 24,1 4 2 10 5 W 1013,2 49 0 0,2
22.09.2020 17:00:00 21,3 18,3 21,3 23,8 24,1 5 3 10 5 ESE 1013,8 20 1 0,0
22.09.2020 16:00:00 20,8 19,5 19,9 23,8 24,0 4 2 15 8 S 1013,9 26 0 0,2
22.09.2020 15:00:00 19,4 17,7 18,1 23,8 24,1 6 4 28 15 S 1014,8 43 0 5,9
22.09.2020 14:00:00 19,2 15,7 18,7 23,8 24,1 20 11 30 16 WNW 1015,2 2,7 0 1,0
22.09.2020 13:00:00 20,5 15,9 18,9 23,8 24,1 19 11 30 16 NE 1014,9 3,0 0 5,8
22.09.2020 12:00:00 23,6 18,7 25,1 23,9 24,1 12 6 20 11 E 1014,9 48 23 0,0
22.09.2020 11:00:00 25,8 17,4 26,1 23,9 24,1 5 3 11 6 ESE 1014,9 18 60 0,0
22.09.2020 10:00:00 23,4 16,9 20,9 24,0 24,1 7 4 15 8 SSW 1014,8 41 60 0,0
22.09.2020 09:00:00 21,2 16,6 16,6 24,1 24,1 7 4 23 12 SSW 1014,9 45 48 0,0
22.09.2020 08:00:00 18,6 15,1 16,1 24,1 24,1 11 6 21 12 SW 1014,6 52 0 0,0
22.09.2020 07:00:00 18,3 15,2 16,1 24,2 24,1 13 7 21 11 SW 1014,2 56 0 0,0
22.09.2020 06:00:00 18,4 15,3 16,1 24,3 24,2 12 7 19 10 SW 1014,3 56 0 0,0
22.09.2020 05:00:00 18,7 15,6 16,3 24,3 24,1 13 7 22 12 SW 1014,4 57 0 0,0
22.09.2020 04:00:00 19,0 15,9 16,8 24,3 24,1 12 7 24 13 SW 1014,6 58 0 0,0
22.09.2020 03:00:00 18,9 15,9 16,5 24,4 24,1 13 7 25 13 SW 1015,1 50 0 0,0
22.09.2020 02:00:00 18,8 16,4 16,6 24,4 24,1 6 4 21 11 SW 1015,2 49 0 0,0
22.09.2020 01:00:00 19,3 16,7 17,1 24,4 24,2 13 7 21 11 SW 1015,7 53 0 0,0
22.09.2020 00:00:00 19,1 16,9 16,6 24,4 24,1 11 6 16 9 SW 1015,9 50 0 0,0
21.09.2020 23:00:00 19,0 17,1 16,6 24,4 24,1 8 4 13 7 SW 1015,8 47 0 0,0
21.09.2020 22:00:00 19,9 17,3 17,4 24,4 24,2 9 5 20 11 SW 1015,6 50 0 0,0
21.09.2020 21:00:00 20,4 17,8 18,4 24,4 24,2 9 5 16 8 SSW 1015,5 52 0 0,0
21.09.2020 20:00:00 20,6 18,2 18,7 24,4 24,2 8 4 16 8 SSW 1015,3 53 0 0,0
21.09.2020 19:00:00 21,1 18,3 20,4 24,3 24,2 7 4 12 6 SW 1015,3 58 48 0,0
21.09.2020 18:00:00 21,3 18,7 19,5 24,3 24,2 10 5 22 12 SW 1015,3 49 13 0,2
21.09.2020 17:00:00 20,3 18,1 19,3 24,2 24,2 12 7 21 11 SW 1015,2 31 0 0,4
21.09.2020 16:00:00 21,9 20,0 21,2 24,2 24,2 9 5 14 8 WSW 1015,3 17 0 0,4
21.09.2020 15:00:00 23,8 18,9 23,8 24,1 24,2 9 5 16 9 NE 1015,1 18 7 0,0
21.09.2020 14:00:00 25,6 18,8 31,1 24,1 24,2 11 6 21 11 ENE 1015,4 38 46 0,0
21.09.2020 13:00:00 25,3 19,7 32,8 24,1 24,2 12 7 21 11 E 1015,8 41 60 0,0
21.09.2020 12:00:00 26,1 18,5 29,8 24,1 24,2 10 5 17 9 E 1015,9 33 60 0,0
21.09.2020 11:00:00 25,9 19,1 24,5 24,2 24,2 3 2 9 5 ESE 1015,9 34 60 0,0
21.09.2020 10:00:00 23,4 18,3 20,9 24,3 24,2 4 2 10 5 S 1015,8 37 60 0,0
21.09.2020 09:00:00 21,1 17,5 17,3 24,4 24,3 8 4 12 6 WSW 1015,5 20 60 0,0
21.09.2020 08:00:00 18,2 16,4 15,4 24,4 24,2 8 4 12 7 SSW 1014,9 39 31 0,0
21.09.2020 07:00:00 17,7 15,5 15,3 24,5 24,2 5 3 12 7 S 1014,7 13 0 0,0
21.09.2020 06:00:00 17,8 16,0 15,9 24,6 24,3 8 4 14 8 SSW 1014,8 50 0 0,0
21.09.2020 05:00:00 17,9 16,1 15,8 24,6 24,3 8 5 16 9 SSW 1014,9 53 0 0,0
21.09.2020 04:00:00 18,2 16,0 16,2 24,7 24,2 7 4 19 10 SSW 1014,8 56 0 0,0
21.09.2020 03:00:00 18,2 16,5 16,1 24,7 24,3 8 4 16 9 SSW 1015,5 47 0 0,0
21.09.2020 02:00:00 18,1 16,8 15,8 24,8 24,2 8 5 12 6 SW 1015,8 52 0 0,0
21.09.2020 01:00:00 18,1 16,6 16,4 24,8 24,3 8 4 13 7 SSW 1015,4 46 0 0,0
21.09.2020 00:00:00 18,3 17,0 16,2 24,9 24,2 5 3 10 5 SW 1015,6 48 0 0,0
20.09.2020 23:00:00 19,2 17,0 16,5 24,9 24,3 6 3 16 9 WSW 1015,3 54 0 0,0
20.09.2020 22:00:00 19,8 17,4 17,1 24,9 24,3 7 4 27 14 SSW 1015,4 53 0 0,0
20.09.2020 21:00:00 20,6 18,2 17,9 24,9 24,3 13 7 25 13 SW 1014,7 44 0 0,2
20.09.2020 20:00:00 21,3 19,4 19,0 25,0 24,3 5 3 19 10 ESE 1014,4 20 0 0,0
20.09.2020 19:00:00 22,6 19,0 21,0 25,0 24,3 8 4 16 9 W 1014,3 55 42 0,0
20.09.2020 18:00:00 21,8 20,1 20,1 25,0 24,3 8 4 18 10 SSW 1014,1 15 18 0,6
20.09.2020 17:00:00 21,2 18,9 20,8 25,0 24,3 8 4 21 11 W 1014,8 45 0 0,0
20.09.2020 16:00:00 20,3 18,4 18,9 25,0 24,3 9 5 16 9 NNW 1015,3 4,5 0 11,3
20.09.2020 15:00:00 21,7 19,4 20,2 24,9 24,3 7 4 27 15 E 1014,9 2,1 0 3,9
20.09.2020 14:00:00 21,3 19,0 20,9 24,9 24,3 19 10 51 28 NNW 1013,8 2,1 0 5,7
20.09.2020 13:00:00 25,9 21,3 27,3 25,0 24,3 8 4 21 11 ENE 1014,1 8 18 0,0

tt = temperature
td = dewpoint
tt 5cm = temperature 5cm
tt -20cm = temperature -20cm
tt -100cm = temperature -100cm
ff = wind speed
fx = gusts
dd = wind direction
ppp = reduced air pressure
vv = visibility
sd = sunshine duration
rr = precipitation

Next stations